Regional Weather Roundup
Issued by NWS

Home | Current Version | Previous Version | Text Only | Print | Product List | Glossary Off
Versions: 1 2 3 4 5 6 7 8 9 10 11 12 13 14 15 16 17 18 19 20 21 22 23 24 25 26 27

000
ASUS45 KBOU 242210
RWRCO

WEATHER ROUNDUP FOR COLORADO
NATIONAL WEATHER SERVICE DENVER/BOULDER CO
400 PM MDT SAT SEP 24 2016

NOTE: "FAIR" INDICATES FEW OR NO CLOUDS BELOW 12000 FEET WITH NO
SIGNIFICANT WEATHER AND/OR OBSTRUCTIONS TO VISIBILITY.

COZ001>005-013-030-031-242300-
...NORTHWEST COLORADO...

CITY           SKY/WX    TMP DP  RH WIND       PRES   REMARKS
CRAIG          CLOUDY    47  39  74 W15       30.24R
HAYDEN         CLOUDY    46  36  66 W16G22    30.23R
MEEKER         CLOUDY    50  39  66 NW7       30.25R
MOUNT WERNER   NOT AVBL
STEAMBOAT SPGS CLOUDY    42  39  89 W8        30.24R
WALDEN           N/A     46  30  53 SW15G23   30.21R
$$

COZ006>008-011-242300-
...WEST CENTRAL VALLEYS...

CITY           SKY/WX    TMP DP  RH WIND       PRES   REMARKS
GRAND JUNCTION CLOUDY    58  42  55 E5        30.20R
MONTROSE       PTSUNNY   57  37  47 E5        30.25R
EAGLE          PTSUNNY   52  36  54 SW21G30   30.24R
RIFLE          CLOUDY    51  44  77 CALM      30.24R
DELTA          CLOUDY    62  36  38 SW5       30.22R
NUCLA          FAIR      59  32  36 CALM      30.26S
$$

COZ017>023-064>068-242300-
...SOUTHWEST COLORADO...

CITY           SKY/WX    TMP DP  RH WIND       PRES   REMARKS
DURANGO        CLOUDY    56  33  42 W9        30.21R
CORTEZ         CLOUDY    59  36  42 NE7       30.22R
PAGOSA SPRINGS CLOUDY    55  28  35 S8        30.24R
TELLURIDE      CLOUDY    43  32  63 W10       30.34R
WOLF CREEK PAS PTSUNNY   34  32  93 SW9       30.41R WCI  26
$$

COZ009-010-012-014-032>034-037-058>063-242300-
...CENTRAL COLORADO...

CITY           SKY/WX    TMP DP  RH WIND       PRES   REMARKS
ASPEN          CLOUDY    46  36  68 NW9       30.26R
BUENA VISTA    FAIR      52  24  32 W17G25    30.22R
COPPER MTN     CLOUDY    34  27  75 MISG      30.34R
BERTHOUD PASS  CLOUDY    25  10  54 NW23G35   30.31R WCI  10
COTTONWOOD PAS CLOUDY    45  25  45 NW3       30.29R
GUNNISON       CLOUDY    47  33  58 SW8       30.28R
KREMMLING      LGT RAIN  50  32  50 W10G17    30.23R
LEADVILLE      CLOUDY    40  24  53 W10G18    30.28R
MONARCH PASS   CLOUDY    28  27  93 W28G33    30.45R WCI  13
SALIDA         PTSUNNY   53  29  40 W21G26    30.29S
SUNLIGHT       CLOUDY    34  32  93 MISG      30.38R FOG
WILKERSON PASS CLOUDY    36  23  60 SW8       30.33R
$$

COZ069>075-242300-
...SAN LUIS VALLEY/SANGRE DE CRISTO MOUNTAINS...

CITY           SKY/WX    TMP DP  RH WIND       PRES   REMARKS
ALAMOSA        FAIR      59  26  28 VRB6      30.16S
LA VETA PASS   FAIR      48  27  43 MISG      30.27R
SAGUACHE       NOT AVBL
$$

COZ035-036-038>040-242300-
...NORTHERN COLORADO FRONT RANGE...

CITY           SKY/WX    TMP DP  RH WIND       PRES   REMARKS
DENVER INTL AP PTSUNNY   66  25  21 NW25G31   30.03R
DMNS CITY PARK   N/A     64  27  24 W8G17     30.05R
AURORA         PTSUNNY   64  26  23 W14G25    30.05R
FRONT RANGE AP PTSUNNY   66  25  20 NW23G36   30.05R
ERIE MUNI ARPT PTSUNNY   66  25  21 W21G28    30.05R
BOULDER MUN AP PTSUNNY   68  28  22 W18G28    30.05R
CENTENNIAL     PTSUNNY   63  25  23 NW16      30.06R
BROOMFIELD     PTSUNNY   66  23  19 W22G28    30.06
FORT COLLINS   FAIR      66  27  22 N3        30.02R
LONGMONT       FAIR      70  28  20 W17G25    30.06R
$$

COZ041-046-047-076>085-087-088-242300-
...PIKES PEAK/PALMER DIVIDE AND SOUTHERN FOOTHILLS...

CITY           SKY/WX    TMP DP  RH WIND       PRES   REMARKS
COLO. SPRINGS  PTSUNNY   68  22  17 VRB3      30.05R
A. F. ACADEMY  CLOUDY    64  23  20 W18G25    30.06R
SCHRIEVER AFB  NOT AVBL
ELLICOTT       FAIR     N/A N/A N/A W10G18    30.03R
FALCON         PTSUNNY   63  21  20 CALM      30.09R
FORT CARSON    FAIR      72  23  16 W20G32    30.01R
LIMON          FAIR      71  19  14 NW8G17    30.00R
MONUMENT HILL  CLOUDY    59  23  25 NW7       30.11R
TRINIDAD       FAIR      72  21  14 VRB3      30.03S
$$

COZ042>045-048>051-090-091-242300-
...NORTHEAST COLORADO...

CITY           SKY/WX    TMP DP  RH WIND       PRES   REMARKS
GREELEY ARPT   FAIR      70  32  24 W13G28    30.03R
AKRON          FAIR      72  25  17 NW10      29.99R
BURLINGTON     FAIR      71  31  22 S6        29.98S
WRAY           FAIR      75  32  20 CALM      29.95F
STERLING       FAIR      73  28  19 W7        29.96R
HOLYOKE        FAIR      79  32  18 SW5       29.95S
FORT MORGAN    PTSUNNY   70  25  18 W8        30.00R
$$

COZ086-089-092>099-242300-
...SOUTHEAST COLORADO...

CITY           SKY/WX    TMP DP  RH WIND       PRES   REMARKS
PUEBLO         FAIR      77  25  14 W12G32    29.97S
LA JUNTA       FAIR      77  25  14 VRB3      29.96F
LAMAR          FAIR      76  32  20 VRB6      29.94F
SPRINGFIELD    NOT AVBL
$$




USA.gov is the U.S. government's official web portal to all federal, state and local government web resources and services.